"Pseudo-MPEC" for P12oT8U

Created 2026 Aug 9 3:35:05 UT using Find_Orb

Click here for an explanation of pseudo-MPECs

 
 Astrometry: 
     P12oT8U*0C2026 08 06.42328821 48 14.818+02 54 23.41   ~86C5 21.08wXNEOCPF51
     P12oT8U 0C2026 08 06.44693121 48 05.541+02 54 22.49   ~86C5 20.81wXNEOCPF51
     P12oT8U 0C2026 08 06.45891321 48 00.837+02 54 21.92   ~86C5 21.05wXNEOCPF51
     P12oT8U 3C2026 08 07.47728621 43 04.847+02 53 05.48   ~87Do 21.14GVNEOCPT14
     P12oT8U 3C2026 08 07.47825521 43 04.539+02 53 05.36   ~87Do 21.12GVNEOCPT14
     P12oT8U 3C2026 08 07.47922521 43 04.234+02 53 05.26   ~87Do 21.21GVNEOCPT14
     P12oT8U 1C2026 08 07.92383021 41 18.989+02 51 13.50   ~87NK 20.3 GXNEOCP033
     P12oT8U 1C2026 08 07.92633021 41 18.287+02 51 13.90   ~87NK 20.1 GXNEOCP033
     P12oT8U 1C2026 08 07.93517021 41 15.976+02 51 12.50   ~87NK 20.7 GXNEOCP033
     P12oT8U 0B2026 08 08.07061021 40 38.046+02 53 44.74   ~88GZ 21.5 GWNEOCPM21

Station data:
(033) Karl Schwarzschild Observatory, Tautenburg  (N50.980139 E11.711240)
   Germany.  Observer B. Stecklum. 1.34-m f/3 Schmidt + CCD.
(F51) Pan-STARRS 1, Haleakala  (N20.707234 W156.255910)  US/Hawaii.
   Observers J. Herman, T. Lowe, P. Minguez, A. Schultz, I. Smith. Measurers
   K. Chambers, T. de Boer, J. Fairlamb, H. Gao, M. Huber, C.-C. Lin, E.
   Magnier, Y. Ramanjooloo, R. Wainscoat, R. Weryk. 1.8-m Ritchey-Chrétien +
   CCD.
(M21) Schiaparelli Southern Observatory, Hakos  (S23.236549 E16.361440)
   Namibia.  Observers A. Aletti, F. Bellini, L. Buzzi, G. Galli. Measurer L.
   Buzzi. 0.36-m f/8.4 reflector + CCD.
(T14) Mauna Kea-UH/Tholen NEO Follow-Up (CFHT)  (N19.825252 W155.468876)
   US/Hawaii.  Observer R. Weryk. 3.6-m Canada-France-Hawaii Telescope.

Orbital elements:  P12oT8U
   Perihelion 2026 Jun 10.622161 +/- 0.0548 TT = 14:55:54.7 (JD 2461202.122161)
Epoch 2026 Aug  8.0 TT = JDT 2461260.5   Earth MOID: 0.0022   Ma: 0.0057
M  33.061575126 +/- 0.13            (J2000 ecliptic)             AutoNEOCP
n   0.566337769 +/- 0.00179         Peri.  292.801709 +/- 0.009
a   1.446835085 +/- 0.00305         Node   308.071225 +/- 0.0054
e   0.42211344 +/- 0.00151          Incl.    6.638471 +/- 0.019
P   1.740/635.651d         H 26.11  G  0.15   U  8.5
q 0.836106549 +/- 0.000417    Q 2.057563620 +/- 0.00652
From 10 observations 2026 Aug. 6-8 (39.5 hr); mean residual 0".30
Residuals in arcseconds: 
260806 F51  .18-  .08-    260807 T14  .01-  .00     260807 033  .18+  .51-    
260806 F51  .09+  .02+    260807 T14  .01+  .00     260808 M21  .52+  .38+    
260806 F51  .10+  .05+    260807 033  .33-  .54-    
260807 T14  .01+  .02+    260807 033  .79-  .08+    

Ephemerides (geocentric):
Date (UTC) HH   RA             Dec           delta  r     elong  mag " sig PA
---- --------  ------------   ------------  ------ ------ -----  --- --------
2026 08 09 04  21 36 59.371   +02 50 16.52  .06963 1.0797 160.4 21.4 .131 114
2026 08 09 05  21 36 51.769   +02 50 10.35  .06991 1.0800 160.4 21.4 .136 112
2026 08 09 06  21 36 44.225   +02 50 04.13  .07019 1.0803 160.5 21.5 .142 110
2026 08 09 07  21 36 36.737   +02 49 57.88  .07046 1.0805 160.5 21.5 .148 108
2026 08 09 08  21 36 29.307   +02 49 51.58  .07074 1.0808 160.5 21.5 .154 106
2026 08 09 09  21 36 21.933   +02 49 45.25  .07102 1.0811 160.6 21.5 .161 105
2026 08 09 10  21 36 14.615   +02 49 38.88  .07130 1.0813 160.6 21.5 .167 103
2026 08 09 11  21 36 07.351   +02 49 32.46  .07157 1.0816 160.6 21.5 .174 102
2026 08 09 12  21 36 00.141   +02 49 26.01  .07185 1.0819 160.7 21.5 .181 100
2026 08 09 13  21 35 52.986   +02 49 19.52  .07213 1.0821 160.7 21.5 .188  99
2026 08 09 14  21 35 45.883   +02 49 12.99  .07241 1.0824 160.7 21.5 .196  98
2026 08 09 15  21 35 38.833   +02 49 06.42  .07268 1.0827 160.8 21.5 .203  97
2026 08 09 16  21 35 31.835   +02 48 59.82  .07296 1.0830 160.8 21.5 .211  96
2026 08 09 17  21 35 24.889   +02 48 53.17  .07324 1.0832 160.8 21.5 .218  95
2026 08 09 18  21 35 17.993   +02 48 46.49  .07352 1.0835 160.8 21.5 .226  94
2026 08 09 19  21 35 11.148   +02 48 39.77  .07380 1.0838 160.9 21.6 .234  93
2026 08 09 20  21 35 04.352   +02 48 33.02  .07408 1.0840 160.9 21.6 .242  93
2026 08 09 21  21 34 57.606   +02 48 26.23  .07435 1.0843 160.9 21.6 .250  92
2026 08 09 22  21 34 50.908   +02 48 19.40  .07463 1.0846 161.0 21.6 .258  91
2026 08 09 23  21 34 44.259   +02 48 12.53  .07491 1.0848 161.0 21.6 .266  90
2026 08 10 00  21 34 37.658   +02 48 05.63  .07519 1.0851 161.0 21.6 .275  90
2026 08 10 01  21 34 31.103   +02 47 58.70  .07547 1.0854 161.0 21.6 .283  89
2026 08 10 02  21 34 24.596   +02 47 51.72  .07575 1.0857 161.1 21.6 .292  89
2026 08 10 03  21 34 18.134   +02 47 44.72  .07603 1.0859 161.1 21.6 .300  88
2026 08 10 04  21 34 11.719   +02 47 37.68  .07631 1.0862 161.1 21.6 .309  88
2026 08 10 05  21 34 05.349   +02 47 30.60  .07658 1.0865 161.2 21.6 .318  87
2026 08 10 06  21 33 59.024   +02 47 23.49  .07686 1.0867 161.2 21.6 .326  87
2026 08 10 07  21 33 52.743   +02 47 16.34  .07714 1.0870 161.2 21.6 .335  86
2026 08 10 08  21 33 46.506   +02 47 09.16  .07742 1.0873 161.2 21.7 .344  86
2026 08 10 09  21 33 40.312   +02 47 01.95  .07770 1.0875 161.3 21.7 .353  85
2026 08 10 10  21 33 34.162   +02 46 54.70  .07798 1.0878 161.3 21.7 .362  85
2026 08 10 11  21 33 28.054   +02 46 47.42  .07826 1.0881 161.3 21.7 .371  85
2026 08 10 12  21 33 21.989   +02 46 40.10  .07854 1.0884 161.3 21.7 .380  84
2026 08 10 13  21 33 15.965   +02 46 32.75  .07882 1.0886 161.4 21.7 .390  84
2026 08 10 14  21 33 09.983   +02 46 25.37  .07910 1.0889 161.4 21.7 .399  83
2026 08 10 15  21 33 04.042   +02 46 17.96  .07938 1.0892 161.4 21.7 .408  83
2026 08 10 16  21 32 58.141   +02 46 10.51  .07966 1.0894 161.4 21.7 .417  83
2026 08 10 17  21 32 52.281   +02 46 03.03  .07994 1.0897 161.5 21.7 .427  83
2026 08 10 18  21 32 46.460   +02 45 55.52  .08022 1.0900 161.5 21.7 .436  82
2026 08 10 19  21 32 40.679   +02 45 47.98  .08050 1.0903 161.5 21.7 .445  82
2026 08 10 20  21 32 34.937   +02 45 40.40  .08078 1.0905 161.5 21.7 .455  82
2026 08 10 21  21 32 29.234   +02 45 32.80  .08106 1.0908 161.6 21.7 .464  81
2026 08 10 22  21 32 23.569   +02 45 25.16  .08134 1.0911 161.6 21.8 .474  81
2026 08 10 23  21 32 17.941   +02 45 17.49  .08162 1.0913 161.6 21.8 .483  81
2026 08 11 00  21 32 12.352   +02 45 09.79  .08190 1.0916 161.6 21.8 .493  81
2026 08 11 01  21 32 06.799   +02 45 02.06  .08218 1.0919 161.7 21.8 .502  80
2026 08 11 02  21 32 01.284   +02 44 54.30  .08246 1.0922 161.7 21.8 .512  80
2026 08 11 03  21 31 55.805   +02 44 46.50  .08274 1.0924 161.7 21.8 .522  80